| time (UTC) | temp F | wind direction | speed MPH | gust MPH | rain 1hr in | rain 24hr in | rain mn in | humidity % | barometer mb |
| 20260502170417 | 84 | 110 | 8.0 | 12.0 | 0.00 | 0.00 | 0.00 | 23 | 1015.1 |
| 20260502163917 | 83 | 110 | 12.0 | 13.0 | 0.00 | 0.00 | 0.00 | 24 | 1015.0 |
| 20260502163417 | 83 | 110 | 5.0 | 14.0 | 0.00 | 0.00 | 0.00 | 24 | 1015.1 |
| 20260502162917 | 82 | 110 | 8.0 | 14.0 | 0.00 | 0.00 | 0.00 | 25 | 1015.1 |
| 20260502162417 | 82 | 110 | 9.0 | 11.0 | 0.00 | 0.00 | 0.00 | 25 | 1015.0 |
| 20260502161917 | 82 | 110 | 8.0 | 15.0 | 0.00 | 0.00 | 0.00 | 25 | 1015.0 |
| 20260502161417 | 81 | 110 | 7.0 | 18.0 | 0.00 | 0.00 | 0.00 | 25 | 1015.0 |
| 20260502160917 | 82 | 110 | 15.0 | 17.0 | 0.00 | 0.00 | 0.00 | 25 | 1014.9 |
| 20260502160417 | 81 | 110 | 13.0 | 14.0 | 0.00 | 0.00 | 0.00 | 26 | 1014.9 |
| 20260502151917 | 79 | 110 | 3.0 | 4.0 | 0.00 | 0.00 | 0.00 | 27 | 1014.6 |
| 20260502151417 | 80 | 110 | 2.0 | 5.0 | 0.00 | 0.00 | 0.00 | 27 | 1014.6 |
| 20260502150917 | 79 | 110 | 2.0 | 7.0 | 0.00 | 0.00 | 0.00 | 27 | 1014.5 |
| 20260502150417 | 79 | 110 | 4.0 | 8.0 | 0.00 | 0.00 | 0.00 | 28 | 1014.4 |
| 20260502130417 | 72 | 110 | 8.0 | 10.0 | 0.00 | 0.00 | 0.00 | 28 | 1012.8 |
| 20260502123417 | 75 | 110 | 4.0 | 8.0 | 0.00 | 0.00 | 0.00 | 24 | 1012.6 |
| 20260502122917 | 75 | 110 | 1.0 | 14.0 | 0.00 | 0.00 | 0.00 | 23 | 1012.3 |
| 20260502122417 | 75 | 110 | 11.0 | 11.0 | 0.00 | 0.00 | 0.00 | 24 | 1012.3 |
| 20260502121917 | 75 | 110 | 7.0 | 12.0 | 0.00 | 0.00 | 0.00 | 22 | 1012.3 |
| 20260502121417 | 75 | 110 | 8.0 | 17.0 | 0.00 | 0.00 | 0.00 | 22 | 1012.3 |
| 20260502120918 | 75 | 110 | 7.0 | 15.0 | 0.00 | 0.00 | 0.00 | 20 | 1012.1 |
| 20260502120417 | 75 | 110 | 5.0 | 16.0 | 0.00 | 0.00 | 0.00 | 20 | 1012.1 |
| 20260502115917 | 76 | 110 | 5.0 | 9.0 | 0.00 | 0.00 | 0.00 | 21 | 1012.2 |
| 20260502115417 | 76 | 110 | 2.0 | 12.0 | 0.00 | 0.00 | 0.00 | 21 | 1012.1 |
| 20260502114917 | 76 | 110 | 10.0 | 18.0 | 0.00 | 0.00 | 0.00 | 20 | 1011.9 |
| 20260502114417 | 76 | 110 | 10.0 | 22.0 | 0.00 | 0.00 | 0.00 | 20 | 1011.9 |
| 20260502113917 | 76 | 110 | 15.0 | 23.0 | 0.00 | 0.00 | 0.00 | 19 | 1011.8 |
| 20260502113417 | 77 | 110 | 5.0 | 19.0 | 0.00 | 0.00 | 0.00 | 18 | 1011.9 |
| 20260502112917 | 77 | 110 | 9.0 | 21.0 | 0.00 | 0.00 | 0.00 | 18 | 1011.9 |
| 20260502112417 | 77 | 110 | 10.0 | 19.0 | 0.00 | 0.00 | 0.00 | 18 | 1012.0 |
| 20260502111917 | 77 | 110 | 8.0 | 19.0 | 0.00 | 0.00 | 0.00 | 18 | 1011.9 |
| 20260502111417 | 77 | 110 | 8.0 | 16.0 | 0.00 | 0.00 | 0.00 | 18 | 1011.9 |
| 20260502110917 | 77 | 110 | 13.0 | 18.0 | 0.00 | 0.00 | 0.00 | 17 | 1011.9 |
| 20260502110417 | 77 | 110 | 16.0 | 22.0 | 0.00 | 0.00 | 0.00 | 17 | 1011.9 |
| 20260502105917 | 77 | 110 | 10.0 | 21.0 | 0.00 | 0.00 | 0.00 | 17 | 1011.9 |
| 20260502105417 | 77 | 110 | 12.0 | 22.0 | 0.00 | 0.00 | 0.00 | 17 | 1011.9 |
| 20260502104918 | 77 | 110 | 19.0 | 23.0 | 0.00 | 0.00 | 0.00 | 17 | 1011.9 |
| 20260502104417 | 78 | 110 | 15.0 | 24.0 | 0.00 | 0.00 | 0.00 | 17 | 1012.0 |
| 20260502103917 | 78 | 110 | 12.0 | 21.0 | 0.00 | 0.00 | 0.00 | 17 | 1011.9 |
| 20260502103418 | 78 | 110 | 16.0 | 23.0 | 0.00 | 0.00 | 0.00 | 17 | 1011.8 |
| 20260502102918 | 78 | 110 | 13.0 | 18.0 | 0.00 | 0.00 | 0.00 | 17 | 1011.8 |
| 20260502102417 | 78 | 110 | 7.0 | 18.0 | 0.00 | 0.00 | 0.00 | 17 | 1011.8 |
| 20260502101917 | 78 | 110 | 12.0 | 19.0 | 0.00 | 0.00 | 0.00 | 17 | 1011.7 |
| 20260502101419 | 78 | 110 | 13.0 | 22.0 | 0.00 | 0.00 | 0.00 | 17 | 1011.8 |
| 20260502100918 | 78 | 110 | 15.0 | 22.0 | 0.00 | 0.00 | 0.00 | 17 | 1011.8 |
| 20260502100417 | 78 | 110 | 16.0 | 24.0 | 0.00 | 0.00 | 0.00 | 17 | 1011.8 |
| 20260502091418 | 78 | 110 | 12.0 | 22.0 | 0.00 | 0.00 | 0.00 | 17 | 1011.9 |
| 20260502090917 | 78 | 110 | 13.0 | 19.0 | 0.00 | 0.00 | 0.00 | 17 | 1011.9 |
| 20260502090417 | 78 | 110 | 16.0 | 28.0 | 0.00 | 0.00 | 0.00 | 17 | 1012.0 |
| 20260502071417 | 69 | 110 | 3.0 | 4.0 | 0.00 | 0.00 | 0.00 | 25 | 1012.2 |
| 20260502070917 | 69 | 110 | 1.0 | 3.0 | 0.00 | 0.00 | 0.00 | 25 | 1012.3 |
| 20260502070417 | 70 | 110 | 0.0 | 4.0 | 0.00 | 0.00 | 0.00 | 25 | 1012.2 |
| 20260502065917 | 71 | 110 | 2.0 | 3.0 | 0.00 | 0.00 | 0.00 | 25 | 1012.2 |
| 20260502065417 | 71 | 110 | 2.0 | 3.0 | 0.00 | 0.00 | 0.00 | 25 | 1012.2 |
| 20260502064917 | 71 | 110 | 2.0 | 3.0 | 0.00 | 0.00 | 0.00 | 25 | 1012.1 |
| 20260502064417 | 71 | 110 | 2.0 | 3.0 | 0.00 | 0.00 | 0.00 | 25 | 1012.1 |
| 20260502063917 | 70 | 110 | 2.0 | 3.0 | 0.00 | 0.00 | 0.00 | 26 | 1012.1 |
| 20260502063417 | 69 | 110 | 2.0 | 3.0 | 0.00 | 0.00 | 0.00 | 26 | 1012.0 |
| 20260502062917 | 69 | 110 | 2.0 | 3.0 | 0.00 | 0.00 | 0.00 | 27 | 1011.9 |
| 20260502062417 | 69 | 110 | 0.0 | 0.0 | 0.00 | 0.00 | 0.00 | 27 | 1011.9 |
| 20260502061917 | 69 | 110 | 0.0 | 0.0 | 0.00 | 0.00 | 0.00 | 27 | 1011.8 |
| 20260502061417 | 69 | 110 | 0.0 | 0.0 | 0.00 | 0.00 | 0.00 | 27 | 1011.8 |
| 20260502060917 | 69 | 110 | 0.0 | 0.0 | 0.00 | 0.00 | 0.00 | 27 | 1011.8 |
| 20260502060418 | 69 | 110 | 0.0 | 0.0 | 0.00 | 0.00 | 0.00 | 26 | 1011.7 |
| 20260502055917 | 69 | 110 | 0.0 | 0.0 | 0.00 | 0.00 | 0.00 | 26 | 1011.8 |
| 20260502055416 | 69 | 110 | 0.0 | 0.0 | 0.00 | 0.00 | 0.00 | 26 | 1011.7 |
| 20260502054917 | 69 | 110 | 0.0 | 1.0 | 0.00 | 0.00 | 0.00 | 26 | 1011.7 |
| 20260502054417 | 70 | 110 | 0.0 | 0.0 | 0.00 | 0.00 | 0.00 | 26 | 1011.6 |
| 20260502053918 | 70 | 110 | 0.0 | 0.0 | 0.00 | 0.00 | 0.00 | 26 | 1011.7 |
| 20260502053417 | 70 | 110 | 0.0 | 2.0 | 0.00 | 0.00 | 0.00 | 25 | 1011.6 |
| 20260502052917 | 70 | 110 | 0.0 | 2.0 | 0.00 | 0.00 | 0.00 | 25 | 1011.6 |
| 20260502052417 | 70 | 110 | 1.0 | 2.0 | 0.00 | 0.00 | 0.00 | 25 | 1011.5 |
| 20260502051917 | 70 | 110 | 1.0 | 2.0 | 0.00 | 0.00 | 0.00 | 25 | 1011.5 |
| 20260502051417 | 71 | 110 | 2.0 | 2.0 | 0.00 | 0.00 | 0.00 | 24 | 1011.5 |
| 20260502050917 | 71 | 110 | 0.0 | 0.0 | 0.00 | 0.00 | 0.00 | 24 | 1011.5 |
| 20260502050418 | 71 | 110 | 0.0 | 1.0 | 0.00 | 0.00 | 0.00 | 24 | 1011.5 |
| 20260502045918 | 71 | 110 | 0.0 | 0.0 | 0.00 | 0.00 | 0.00 | 24 | 1011.5 |
| 20260502045416 | 72 | 110 | 0.0 | 1.0 | 0.00 | 0.00 | 0.00 | 24 | 1011.5 |
| 20260502044917 | 72 | 110 | 1.0 | 2.0 | 0.00 | 0.00 | 0.00 | 23 | 1011.4 |
| 20260502044417 | 72 | 110 | 1.0 | 2.0 | 0.00 | 0.00 | 0.00 | 24 | 1011.4 |
| 20260502043917 | 72 | 110 | 1.0 | 2.0 | 0.00 | 0.00 | 0.00 | 24 | 1011.3 |
| 20260502043416 | 72 | 110 | 1.0 | 2.0 | 0.00 | 0.00 | 0.00 | 24 | 1011.3 |
| 20260502042917 | 72 | 110 | 2.0 | 2.0 | 0.00 | 0.00 | 0.00 | 24 | 1011.3 |
| 20260502042417 | 72 | 110 | 1.0 | 2.0 | 0.00 | 0.00 | 0.00 | 25 | 1011.2 |
| 20260502041917 | 72 | 110 | 1.0 | 2.0 | 0.00 | 0.00 | 0.00 | 25 | 1011.2 |
| 20260502041417 | 73 | 110 | 2.0 | 2.0 | 0.00 | 0.00 | 0.00 | 24 | 1011.1 |
| 20260502040917 | 73 | 110 | 1.0 | 2.0 | 0.00 | 0.00 | 0.00 | 24 | 1011.0 |
| 20260502040417 | 73 | 110 | 1.0 | 1.0 | 0.00 | 0.00 | 0.00 | 23 | 1011.0 |
| 20260502035917 | 74 | 110 | 0.0 | 2.0 | 0.00 | 0.00 | 0.00 | 23 | 1010.9 |
| 20260502035417 | 74 | 110 | 0.0 | 2.0 | 0.00 | 0.00 | 0.00 | 23 | 1010.8 |
| 20260502034917 | 75 | 110 | 2.0 | 3.0 | 0.00 | 0.00 | 0.00 | 23 | 1010.8 |
| 20260502034417 | 74 | 110 | 2.0 | 3.0 | 0.00 | 0.00 | 0.00 | 23 | 1010.7 |
| 20260502033917 | 74 | 110 | 2.0 | 2.0 | 0.00 | 0.00 | 0.00 | 24 | 1010.7 |
| 20260502033417 | 74 | 110 | 0.0 | 0.0 | 0.00 | 0.00 | 0.00 | 24 | 1010.6 |
| 20260502032917 | 74 | 110 | 0.0 | 0.0 | 0.00 | 0.00 | 0.00 | 24 | 1010.5 |
| 20260502032417 | 75 | 110 | 0.0 | 0.0 | 0.00 | 0.00 | 0.00 | 24 | 1010.5 |
| 20260502031916 | 75 | 110 | 0.0 | 0.0 | 0.00 | 0.00 | 0.00 | 24 | 1010.5 |
| 20260502031417 | 75 | 110 | 0.0 | 0.0 | 0.00 | 0.00 | 0.00 | 24 | 1010.4 |
| 20260502030917 | 76 | 110 | 0.0 | 0.0 | 0.00 | 0.00 | 0.00 | 24 | 1010.3 |
| 20260502030418 | 76 | 110 | 0.0 | 1.0 | 0.00 | 0.00 | 0.00 | 23 | 1010.3 |
| 20260502025917 | 77 | 110 | 0.0 | 0.0 | 0.00 | 0.00 | 0.00 | 23 | 1010.2 |
| 20260502025417 | 77 | 110 | 0.0 | 0.0 | 0.00 | 0.00 | 0.00 | 23 | 1010.2 |
| 20260502024917 | 77 | 110 | 0.0 | 0.0 | 0.00 | 0.00 | 0.00 | 22 | 1010.1 |
| 20260502024417 | 78 | 110 | 0.0 | 0.0 | 0.00 | 0.00 | 0.00 | 22 | 1010.1 |
| 20260502023917 | 78 | 110 | 0.0 | 0.0 | 0.00 | 0.00 | 0.00 | 21 | 1010.0 |
| 20260502023416 | 79 | 110 | 0.0 | 1.0 | 0.00 | 0.00 | 0.00 | 21 | 1010.0 |
| 20260502022917 | 79 | 110 | 0.0 | 1.0 | 0.00 | 0.00 | 0.00 | 21 | 1010.0 |
| 20260502022417 | 80 | 110 | 0.0 | 1.0 | 0.00 | 0.00 | 0.00 | 20 | 1009.8 |
| 20260502021917 | 81 | 110 | 1.0 | 1.0 | 0.00 | 0.00 | 0.00 | 19 | 1009.8 |
| 20260502021418 | 82 | 110 | 0.0 | 2.0 | 0.00 | 0.00 | 0.00 | 19 | 1009.8 |
| 20260502020917 | 82 | 110 | 2.0 | 4.0 | 0.00 | 0.00 | 0.00 | 19 | 1009.8 |
| 20260502020417 | 82 | 110 | 4.0 | 5.0 | 0.00 | 0.00 | 0.00 | 19 | 1009.8 |
| 20260502015916 | 83 | 110 | 1.0 | 4.0 | 0.00 | 0.00 | 0.00 | 18 | 1009.7 |
| 20260502015417 | 83 | 110 | 1.0 | 5.0 | 0.00 | 0.00 | 0.00 | 17 | 1009.7 |
| 20260502014917 | 83 | 110 | 3.0 | 7.0 | 0.00 | 0.00 | 0.00 | 17 | 1009.7 |
| 20260502014417 | 83 | 110 | 3.0 | 8.0 | 0.00 | 0.00 | 0.00 | 17 | 1009.6 |
| 20260502013919 | 84 | 110 | 4.0 | 7.0 | 0.00 | 0.00 | 0.00 | 17 | 1009.6 |
| 20260502013417 | 84 | 110 | 5.0 | 10.0 | 0.00 | 0.00 | 0.00 | 17 | 1009.6 |
| 20260502012917 | 84 | 110 | 3.0 | 9.0 | 0.00 | 0.00 | 0.00 | 17 | 1009.6 |
| 20260502012417 | 84 | 110 | 8.0 | 8.0 | 0.00 | 0.00 | 0.00 | 17 | 1009.6 |
| 20260502011917 | 85 | 110 | 7.0 | 11.0 | 0.00 | 0.00 | 0.00 | 17 | 1009.6 |
| 20260502011416 | 85 | 110 | 8.0 | 10.0 | 0.00 | 0.00 | 0.00 | 17 | 1009.5 |
| 20260502010916 | 85 | 110 | 5.0 | 8.0 | 0.00 | 0.00 | 0.00 | 17 | 1009.6 |
| 20260502010417 | 85 | 110 | 5.0 | 11.0 | 0.00 | 0.00 | 0.00 | 18 | 1009.6 |
| 20260502005917 | 85 | 110 | 5.0 | 11.0 | 0.00 | 0.00 | 0.00 | 18 | 1009.5 |
| 20260502005417 | 86 | 110 | 4.0 | 10.0 | 0.00 | 0.00 | 0.00 | 18 | 1009.4 |
| 20260502004917 | 86 | 110 | 5.0 | 10.0 | 0.00 | 0.00 | 0.00 | 18 | 1009.4 |
| 20260502004417 | 86 | 110 | 8.0 | 10.0 | 0.00 | 0.00 | 0.00 | 17 | 1009.3 |
| 20260502003917 | 86 | 110 | 3.0 | 7.0 | 0.00 | 0.00 | 0.00 | 18 | 1009.3 |
| 20260502003416 | 86 | 110 | 3.0 | 7.0 | 0.00 | 0.00 | 0.00 | 18 | 1009.3 |
| 20260502002918 | 86 | 110 | 3.0 | 9.0 | 0.00 | 0.00 | 0.00 | 18 | 1009.4 |
| 20260502002417 | 86 | 110 | 1.0 | 7.0 | 0.00 | 0.00 | 0.00 | 18 | 1009.4 |
| 20260502001917 | 85 | 110 | 3.0 | 7.0 | 0.00 | 0.00 | 0.00 | 18 | 1009.4 |
| 20260502001416 | 85 | 110 | 1.0 | 7.0 | 0.00 | 0.00 | 0.00 | 17 | 1009.4 |
| 20260502000916 | 85 | 110 | 0.0 | 7.0 | 0.00 | 0.00 | 0.00 | 17 | 1009.5 |
| 20260502000417 | 87 | 110 | 5.0 | 8.0 | 0.00 | 0.00 | 0.00 | 17 | 1009.5 |
| 20260501235917 | 86 | 110 | 7.0 | 12.0 | 0.00 | 0.00 | 0.00 | 17 | 1009.4 |
| 20260501235418 | 86 | 110 | 4.0 | 11.0 | 0.00 | 0.00 | 0.00 | 17 | 1009.5 |
| 20260501234917 | 86 | 110 | 4.0 | 10.0 | 0.00 | 0.00 | 0.00 | 16 | 1009.6 |
| 20260501234417 | 86 | 110 | 4.0 | 13.0 | 0.00 | 0.00 | 0.00 | 17 | 1009.6 |
| 20260501233917 | 86 | 110 | 13.0 | 12.0 | 0.00 | 0.00 | 0.00 | 18 | 1009.6 |
| 20260501233417 | 87 | 110 | 3.0 | 9.0 | 0.00 | 0.00 | 0.00 | 17 | 1009.6 |
| 20260501232916 | 87 | 110 | 2.0 | 10.0 | 0.00 | 0.00 | 0.00 | 17 | 1009.7 |
| 20260501232417 | 87 | 110 | 3.0 | 11.0 | 0.00 | 0.00 | 0.00 | 17 | 1009.8 |
| 20260501231916 | 86 | 110 | 7.0 | 9.0 | 0.00 | 0.00 | 0.00 | 17 | 1009.7 |
| 20260501231417 | 87 | 110 | 8.0 | 14.0 | 0.00 | 0.00 | 0.00 | 16 | 1009.7 |
| 20260501230917 | 87 | 110 | 4.0 | 8.0 | 0.00 | 0.00 | 0.00 | 16 | 1009.7 |
| 20260501230417 | 86 | 110 | 2.0 | 14.0 | 0.00 | 0.00 | 0.00 | 17 | 1009.7 |
| 20260501225917 | 86 | 110 | 8.0 | 9.0 | 0.00 | 0.00 | 0.00 | 19 | 1009.7 |
| 20260501225416 | 86 | 110 | 5.0 | 11.0 | 0.00 | 0.00 | 0.00 | 18 | 1009.8 |
| 20260501224916 | 86 | 110 | 8.0 | 16.0 | 0.00 | 0.00 | 0.00 | 19 | 1009.9 |
| 20260501224417 | 86 | 110 | 14.0 | 13.0 | 0.00 | 0.00 | 0.00 | 18 | 1009.9 |
| 20260501223916 | 87 | 110 | 7.0 | 11.0 | 0.00 | 0.00 | 0.00 | 18 | 1009.9 |
| 20260501223417 | 87 | 110 | 5.0 | 9.0 | 0.00 | 0.00 | 0.00 | 18 | 1010.0 |
| 20260501222917 | 87 | 110 | 4.0 | 13.0 | 0.00 | 0.00 | 0.00 | 17 | 1010.0 |
| 20260501222417 | 86 | 110 | 4.0 | 14.0 | 0.00 | 0.00 | 0.00 | 18 | 1010.0 |
| 20260501221917 | 86 | 110 | 0.0 | 8.0 | 0.00 | 0.00 | 0.00 | 18 | 1010.1 |
| 20260501221416 | 87 | 110 | 5.0 | 10.0 | 0.00 | 0.00 | 0.00 | 18 | 1010.1 |
| 20260501220917 | 86 | 110 | 5.0 | 8.0 | 0.00 | 0.00 | 0.00 | 18 | 1010.2 |
| 20260501220416 | 87 | 110 | 5.0 | 12.0 | 0.00 | 0.00 | 0.00 | 17 | 1010.2 |
| 20260501215916 | 87 | 110 | 7.0 | 12.0 | 0.00 | 0.00 | 0.00 | 18 | 1010.3 |
| 20260501215417 | 86 | 110 | 8.0 | 12.0 | 0.00 | 0.00 | 0.00 | 19 | 1010.3 |
| 20260501214918 | 85 | 110 | 3.0 | 8.0 | 0.00 | 0.00 | 0.00 | 19 | 1010.5 |
| 20260501214416 | 85 | 110 | 4.0 | 9.0 | 0.00 | 0.00 | 0.00 | 19 | 1010.5 |
| 20260501213917 | 86 | 110 | 7.0 | 14.0 | 0.00 | 0.00 | 0.00 | 19 | 1010.6 |
| 20260501213418 | 86 | 110 | 12.0 | 12.0 | 0.00 | 0.00 | 0.00 | 19 | 1010.7 |
| 20260501212917 | 85 | 110 | 5.0 | 9.0 | 0.00 | 0.00 | 0.00 | 20 | 1010.7 |
| 20260501212416 | 84 | 110 | 8.0 | 10.0 | 0.00 | 0.00 | 0.00 | 21 | 1010.8 |
| 20260501211917 | 84 | 110 | 2.0 | 5.0 | 0.00 | 0.00 | 0.00 | 20 | 1010.9 |
| 20260501211417 | 85 | 110 | 5.0 | 12.0 | 0.00 | 0.00 | 0.00 | 20 | 1011.0 |
| 20260501210917 | 86 | 110 | 9.0 | 11.0 | 0.00 | 0.00 | 0.00 | 20 | 1011.0 |
| 20260501210417 | 84 | 110 | 7.0 | 7.0 | 0.00 | 0.00 | 0.00 | 20 | 1011.0 |
| 20260501205918 | 83 | 110 | 0.0 | 5.0 | 0.00 | 0.00 | 0.00 | 21 | 1011.0 |
| 20260501205417 | 84 | 110 | 1.0 | 9.0 | 0.00 | 0.00 | 0.00 | 20 | 1011.2 |
| 20260501204918 | 85 | 110 | 7.0 | 14.0 | 0.00 | 0.00 | 0.00 | 20 | 1011.3 |
| 20260501204417 | 84 | 110 | 8.0 | 8.0 | 0.00 | 0.00 | 0.00 | 20 | 1011.3 |
| 20260501203917 | 84 | 110 | 2.0 | 11.0 | 0.00 | 0.00 | 0.00 | 20 | 1011.4 |
| 20260501203417 | 84 | 110 | 8.0 | 12.0 | 0.00 | 0.00 | 0.00 | 20 | 1011.4 |
| 20260501202917 | 83 | 110 | 3.0 | 7.0 | 0.00 | 0.00 | 0.00 | 21 | 1011.4 |
| 20260501202417 | 84 | 110 | 0.0 | 12.0 | 0.00 | 0.00 | 0.00 | 20 | 1011.5 |
| 20260501201917 | 85 | 110 | 9.0 | 12.0 | 0.00 | 0.00 | 0.00 | 21 | 1011.4 |
| 20260501201418 | 83 | 110 | 0.0 | 10.0 | 0.00 | 0.00 | 0.00 | 21 | 1011.5 |
| 20260501200917 | 84 | 110 | 7.0 | 7.0 | 0.00 | 0.00 | 0.00 | 21 | 1011.5 |
| 20260501200416 | 84 | 110 | 5.0 | 11.0 | 0.00 | 0.00 | 0.00 | 20 | 1011.5 |
| 20260501195916 | 83 | 110 | 5.0 | 11.0 | 0.00 | 0.00 | 0.00 | 21 | 1011.5 |
| 20260501195417 | 82 | 110 | 4.0 | 7.0 | 0.00 | 0.00 | 0.00 | 22 | 1011.6 |
| 20260501194916 | 83 | 110 | 7.0 | 10.0 | 0.00 | 0.00 | 0.00 | 21 | 1011.7 |
| 20260501194417 | 83 | 110 | 9.0 | 12.0 | 0.00 | 0.00 | 0.00 | 22 | 1011.7 |
| 20260501193917 | 83 | 110 | 4.0 | 11.0 | 0.00 | 0.00 | 0.00 | 22 | 1011.8 |
| 20260501193417 | 83 | 110 | 3.0 | 10.0 | 0.00 | 0.00 | 0.00 | 22 | 1011.8 |
| 20260501192917 | 83 | 110 | 5.0 | 11.0 | 0.00 | 0.00 | 0.00 | 22 | 1011.9 |
| 20260501192417 | 83 | 110 | 7.0 | 9.0 | 0.00 | 0.00 | 0.00 | 23 | 1012.0 |
| 20260501191917 | 82 | 110 | 7.0 | 8.0 | 0.00 | 0.00 | 0.00 | 23 | 1012.0 |
| 20260501191417 | 82 | 110 | 7.0 | 10.0 | 0.00 | 0.00 | 0.00 | 24 | 1012.1 |
| 20260501190916 | 81 | 110 | 8.0 | 10.0 | 0.00 | 0.00 | 0.00 | 24 | 1012.1 |
| 20260501190416 | 81 | 110 | 2.0 | 12.0 | 0.00 | 0.00 | 0.00 | 24 | 1012.2 |
| 20260501185917 | 81 | 110 | 1.0 | 9.0 | 0.00 | 0.00 | 0.00 | 25 | 1012.3 |
| 20260501185417 | 81 | 110 | 4.0 | 8.0 | 0.00 | 0.00 | 0.00 | 25 | 1012.3 |
| 20260501184917 | 81 | 110 | 5.0 | 11.0 | 0.00 | 0.00 | 0.00 | 25 | 1012.4 |
| 20260501184416 | 81 | 110 | 3.0 | 10.0 | 0.00 | 0.00 | 0.00 | 25 | 1012.5 |
| 20260501183918 | 81 | 110 | 5.0 | 14.0 | 0.00 | 0.00 | 0.00 | 25 | 1012.6 |
| 20260501183417 | 80 | 110 | 10.0 | 10.0 | 0.00 | 0.00 | 0.00 | 25 | 1012.7 |
| 20260501182917 | 81 | 110 | 1.0 | 10.0 | 0.00 | 0.00 | 0.00 | 25 | 1012.7 |
| 20260501182416 | 80 | 110 | 5.0 | 10.0 | 0.00 | 0.00 | 0.00 | 26 | 1012.8 |
| 20260501181916 | 80 | 110 | 1.0 | 7.0 | 0.00 | 0.00 | 0.00 | 26 | 1012.9 |
| 20260501181417 | 79 | 110 | 5.0 | 10.0 | 0.00 | 0.00 | 0.00 | 27 | 1012.9 |
| 20260501180917 | 79 | 110 | 3.0 | 11.0 | 0.00 | 0.00 | 0.00 | 27 | 1013.0 |
| 20260501180417 | 80 | 110 | 3.0 | 13.0 | 0.00 | 0.00 | 0.00 | 27 | 1013.0 |
| 20260501175918 | 79 | 110 | 4.0 | 10.0 | 0.00 | 0.00 | 0.00 | 28 | 1013.1 |